Regional Weather Roundup
Issued by NWS Mt. Holly, NJ

Home | Current Version | Previous Version | Text Only | Print | Product List | Glossary On
Versions: 1 2 3 4 5 6 7 8 9 10 11 12 13 14 15 16 17 18 19 20 21 22 23 24 25 26 27
000
ASUS41 KPHI 260512
RWRPHI

REGIONAL WEATHER ROUNDUP
NATIONAL WEATHER SERVICE MOUNT HOLLY NJ
100 AM EDT THU MAY 26 2016

NOTE:  "FAIR" INDICATES FEW OR NO CLOUDS BELOW 12,000 FEET WITH NO
SIGNIFICANT WEATHER AND/OR OBSTRUCTIONS TO VISIBILITY.

 * = STATION DOES NOT REPORT PRECIPITATION (E.G. RAIN, SNOW, ETC.)
        OR FOG.

NJZ015>026-260600-
SOUTHERN NEW JERSEY

CITY           SKY/WX    TMP DP  RH WIND       PRES   REMARKS
POMONA         CLEAR     68  55  63 SW6       30.10S
WILDWOOD*      CLOUDY   N/A N/A N/A SW5       30.12S
MILLVILLE      CLOUDY    59  54  83 CALM      30.11S
WRIGHTSTOWN    CLEAR     67  55  65 SW3       30.07S
MOUNT HOLLY    CLOUDY    67  54  63 SW5       30.09S
TRENTON        CLOUDY    71  51  49 W3        30.08S

$$
NJZ001>014-260600-
NORTHERN NEW JERSEY

CITY           SKY/WX    TMP DP  RH WIND       PRES   REMARKS
SUSSEX         CLOUDY    59  53  80 CALM      30.08S
ANDOVER*         N/A     60  56  86 CALM      30.09S
MORRISTOWN     CLOUDY    59  52  77 CALM      30.08R
NEWARK         CLOUDY    74  48  39 W9        30.06S
TETERBORO      CLEAR     71  48  43 SW5       30.05S
CALDWELL       CLOUDY    67  52  58 CALM      30.07R
SOMERVILLE     CLOUDY    59  54  83 CALM      30.06S
ALLAIRE*       CLEAR     70  53  54 SW6       30.09S
TOMS RIVER*    PTCLDY    64  50  59 W5        30.09S

$$
PAZ043-044-047-054-055-060>062-066>071-260600-
EASTERN PENNSYLVANIA

CITY           SKY/WX    TMP DP  RH WIND       PRES   REMARKS
PHILADELPHIA   CLOUDY    70  55  59 SW7       30.10S
NORTH PHILA    CLOUDY    72  54  53 SW7       30.10S
BLUE BELL*     CLOUDY    59  55  88 CALM      30.09F
DOYLESTOWN     CLOUDY    67  49  52 S3        30.09S
QUAKERTOWN*    CLOUDY    59  55  88 CALM      30.11S
PERKASIE*      MOCLDY    63  50  63 CALM      30.11S
POTTSTOWN      CLOUDY    63  53  70 CALM      30.11S
LANCASTER      PTCLDY    61  54  77 CALM      30.10S
COATESVILLE    CLOUDY    70  52  52 SW3       30.13S
READING        CLOUDY    63  54  72 CALM      30.09S
ALLENTOWN      CLOUDY    64  52  64 SW3       30.09S
MOUNT POCONO   CLOUDY    54  49  83 NW6       30.14S
HAZLETON       PTCLDY    61  50  67 CALM      30.16S
LEHIGHTON      FAIR      54  52  94 CALM      30.11S
WILKES BARRE   CLOUDY    62  53  72 S5        30.10S

$$
DEZALL-MDZ008-012-015-019-020-260600-
DELAWARE AND EASTERN MARYLAND

CITY           SKY/WX    TMP DP  RH WIND       PRES   REMARKS
WILMINGTON     CLOUDY    67  56  67 W5        30.11S
DOVER          CLOUDY    68  59  73 S6        30.10S
GEORGETOWN     CLOUDY    66  56  70 S3        30.13S
EASTON         CLOUDY    69  60  74 CALM      30.15S
PATUXENT       CLOUDY    65  57  75 SW3       30.12S
OCEAN CITY     CLEAR     64  59  83 SW3       30.13F
WALLOPS ISLAND FAIR      64  61  90 S8        30.14S
CAMBRIDGE      CLOUDY    63  57  82 CALM      30.12S
SALISBURY      CLOUDY    62  56  80 CALM      30.13S

$$
PAZ001-021-NYZ056-072-MDZ011-DCZ001-260600-
OTHER NEARBY LOCATIONS

CITY           SKY/WX    TMP DP  RH WIND       PRES   REMARKS
HARRISBURG     CLOUDY    69  52  54 E5        30.09R
STATE COLLEGE  PTCLDY    65  50  58 W3        30.13R
WILLIAMSPORT   CLOUDY    60  53  77 SW3       30.10R
BINGHAMTON     CLOUDY    66  50  56 S5        30.11S
NEW YORK CITY  CLEAR     75  47  36 VRB5      30.09S
BALTIMORE      CLOUDY    62  56  80 CALM      30.10F
WASHINGTON DC  MOCLDY    65  61  87 S8        30.12S

$$




USA.gov is the U.S. government's official web portal to all federal, state and local government web resources and services.